This demonstration page uses our WeatherBlox Daily Observations layout. Learn more.

Left ArrowRight Arrow

40.97296, -117.73568

Hourly Observations for January 21, 2022

Temp ( °F °C ) Dew Point ( °F °C ) Humidity (%) Winds ( mph kmh ) Pressure ( in mb ) Visibility ( mi km ) Precip ( " mm )
12:56 am 00:56 Mostly Clear 30 -1.1 26 -3.3 85 85 NW 3 6 30.25 1024 10 16 0.00 0.00
1:56 am 01:56 Clear 31 -0.6 27 -2.8 85 85 NE 5 7 30.26 1025 10 16 0.00 0.00
2:56 am 02:56 Clear 36 2.2 27 -2.8 70 70 NNE 9 15 30.26 1025 10 16 0.00 0.00
3:56 am 03:56 Mostly Clear 36 2.2 25 -3.9 64 64 VRB 5 7 30.28 1025 10 16 0.00 0.00
4:56 am 04:56 Mostly Cloudy 33 0.6 25 -3.9 72 72 Calm 30.30 1026 10 16 0.00 0.00
5:56 am 05:56 Clear 36 2.2 25 -3.9 64 64 VRB 3 6 30.34 1028 10 16 0.00 0.00
6:56 am 06:56 Cloudy 34 1.1 25 -3.9 70 70 NW 9 15 30.38 1029 10 16 0.00 0.00
7:56 am 07:56 Cloudy 34 1.1 25 -3.9 70 70 N 9 15 30.43 1031 10 16 0.00 0.00
8:56 am 08:56 Cloudy 36 2.2 25 -3.9 64 64 N 7 11 30.45 1031 10 16 0.00 0.00
9:56 am 09:56 Mostly Cloudy 41 5 25 -3.9 53 53 NNE 13 20 30.47 1032 10 16 0.00 0.00
10:56 am 10:56 Sunny 41 5 23 -5 49 49 NNE 13 20 30.47 1032 10 16 0.00 0.00
11:56 am 11:56 Sunny 43 6.1 25 -3.9 49 49 N 12 19 30.45 1031 10 16 0.00 0.00
12:56 pm 12:56 Mostly Cloudy 44 6.7 25 -3.9 47 47 N 7 11 30.42 1030 10 16 0.00 0.00
1:56 pm 13:56 Mostly Cloudy 43 6.1 25 -3.9 49 49 N 10 17 30.42 1030 10 16 0.00 0.00
2:56 pm 14:56 Mostly Sunny 42 5.6 23 -5 47 47 NNE 10 17 30.41 1030 10 16 0.00 0.00
3:56 pm 15:56 Mostly Sunny 41 5 25 -3.9 53 53 N 15 24 30.40 1030 10 16 0.00 0.00
4:56 pm 16:56 Clear 38 3.3 23 -5 55 55 NE 13 20 30.42 1030 10 16 0.00 0.00
5:56 pm 17:56 Clear 36 2.2 23 -5 59 59 NE 9 15 30.43 1031 10 16 0.00 0.00
6:56 pm 18:56 Clear 34 1.1 23 -5 64 64 NE 14 22 30.44 1031 10 16 0.00 0.00
7:56 pm 19:56 Clear 30 -1.1 22 -5.6 72 72 VRB 3 6 30.45 1031 10 16 0.00 0.00
8:56 pm 20:56 Clear 30 -1.1 23 -5 75 75 W 5 7 30.46 1031 10 16 0.00 0.00
9:56 pm 21:56 Clear 32 0 23 -5 69 69 VRB 6 9 30.44 1031 10 16 0.00 0.00
10:56 pm 22:56 Clear 30 -1.1 22 -5.6 72 72 NNW 9 15 30.45 1031 10 16 0.00 0.00
11:56 pm 23:56 Clear 30 -1.1 22 -5.6 72 72 NW 6 9 30.45 1031 10 16 0.00 0.00

Powered by AerisWeather